Weather History for Harrison, AR

Change the Weather History Date:

Thursday, August 2, 2012

  Actual Average Record
Temperature  
Mean Temperature 87 °F 79 °F  
Max Temperature 100 °F 90 °F 109 °F (2011)
Min Temperature 73 °F 68 °F 52 °F (1911)
Degree Days  
Heating Degree Days 0 0  
Month to date heating degree days 0 0  
Since 1 June heating degree days 5 6  
Since 1 July heating degree days 0 0  
Cooling Degree Days 22 14  
Month to date cooling degree days 46 28  
Year to date cooling degree days 1354 846  
Since 1 June cooling degree days 1027 707  
Growing Degree Days 36 (Base 50)    
Moisture  
Dew Point 68 °F    
Average Humidity 63    
Maximum Humidity 94    
Minimum Humidity 31    
Precipitation  
Precipitation 0.11 in 0.12 in 2.46 in (1981)
Month to date precipitation 0.99 0.25  
Year to date precipitation 18.65 25.63  
Snow  
Snow 0.00 in 0.00 in - ()
Month to date snowfall 0.0 0.0  
Since 1 June snowfall 0.0 0.0  
Since 1 July snowfall 0.0 0.0  
Snow Depth 0.00 in    
Sea Level Pressure  
Sea Level Pressure 29.79 in    
Wind  
Wind Speed 9 mph (South)    
Max Wind Speed 22 mph    
Max Gust Speed 30 mph    
Visibility 10 miles    
Events Rain , Thunderstorm    
T = Trace of Precipitation, MM = Missing Value Source: NWS Daily Summary

Daily Weather History Graph

Daily Weather History Graph

Search for Another Location

Airport:

Trip Planner

Search our weather history database for the weather conditions in past years. The results will help you decide how hot, cold, wet, or windy it might be!

Date:

Astronomy

Aug. 02, 2012 Rise Set
Actual Time 6:20 AM CDT 8:16 PM CDT
Civil Twilight 5:52 AM CDT 8:44 PM CDT
Nautical Twilight 5:18 AM CDT 9:18 PM CDT
Astronomical Twilight 4:41 AM CDT 9:55 PM CDT
Moon 8:26 PM CDT (8/2) 6:55 AM CDT (8/2)
Length of Visible Light 14h 52m
Length of Day
13h 55m
Full, 100% of the Moon is Illuminated
Aug 2
Full
Aug 9
Last Quarter
Aug 17
New
Aug 24
First Quarter
Aug 31
Full

Hourly Weather History & Observations

Time (CDT) Temp. Heat Index Dew Point Humidity Pressure Visibility Wind Dir Wind Speed Gust Speed Precip Events Conditions
12:53 AM 75.9 °F - 70.0 °F 82% 29.80 in 10.0 mi SE 3.5 mph - N/A   Clear
1:53 AM 75.0 °F - 71.1 °F 87% 29.78 in 10.0 mi SSE 3.5 mph - N/A   Clear
2:53 AM 75.0 °F - 70.0 °F 84% 29.78 in 10.0 mi SSE 4.6 mph - N/A   Partly Cloudy
3:53 AM 73.0 °F - 71.1 °F 93% 29.77 in 10.0 mi South 5.8 mph - N/A   Clear
4:53 AM 75.9 °F - 69.1 °F 79% 29.79 in 10.0 mi ESE 6.9 mph - N/A   Clear
5:53 AM 75.9 °F - 69.1 °F 79% 29.83 in 10.0 mi ESE 8.1 mph - N/A   Clear
6:53 AM 75.0 °F - 71.1 °F 87% 29.84 in 7.0 mi SE 11.5 mph - 0.03 in Rain Light Rain
7:53 AM 75.0 °F - 72.0 °F 90% 29.86 in 10.0 mi SSE 12.7 mph - 0.00 in   Scattered Clouds
8:53 AM 75.9 °F - 73.0 °F 91% 29.87 in 10.0 mi SE 13.8 mph - 0.02 in   Partly Cloudy
9:53 AM 78.1 °F - 72.0 °F 81% 29.88 in 10.0 mi SSE 15.0 mph - 0.00 in   Clear
10:53 AM 82.0 °F 86.3 °F 71.1 °F 69% 29.85 in 10.0 mi South 20.7 mph 29.9 mph N/A   Clear
11:53 AM 87.1 °F 93.6 °F 72.0 °F 61% 29.83 in 10.0 mi South 16.1 mph 23.0 mph N/A   Clear
12:53 PM 91.4 °F 95.4 °F 68.0 °F 46% 29.85 in 10.0 mi South 12.7 mph 24.2 mph N/A   Clear
1:53 PM 95.0 °F 97.9 °F 66.0 °F 38% 29.77 in 10.0 mi South 10.4 mph 20.7 mph N/A   Clear
2:53 PM 96.1 °F 98.8 °F 64.9 °F 36% 29.75 in 10.0 mi SSW 10.4 mph - N/A   Clear
3:53 PM 98.1 °F 99.6 °F 63.0 °F 31% 29.74 in 10.0 mi South 10.4 mph - N/A   Clear
4:53 PM 98.6 °F 101.0 °F 64.4 °F 32% 29.80 in 10.0 mi WSW 10.4 mph - N/A   Clear
5:53 PM 98.1 °F 100.7 °F 64.0 °F 33% 29.73 in 10.0 mi SSW 5.8 mph - N/A   Clear
6:53 PM 97.0 °F 100.4 °F 66.0 °F 36% 29.71 in 10.0 mi SW 4.6 mph - N/A   Clear
7:53 PM 93.0 °F 95.0 °F 64.9 °F 39% 29.73 in 10.0 mi South 4.6 mph - N/A   Clear
8:53 PM 90.0 °F 91.7 °F 64.9 °F 43% 29.73 in 10.0 mi South 5.8 mph - N/A   Clear
9:53 PM 88.0 °F 90.3 °F 66.0 °F 48% 29.75 in 10.0 mi SSE 3.5 mph - N/A   Partly Cloudy
10:53 PM 88.0 °F 90.3 °F 66.0 °F 48% 29.75 in 10.0 mi South 3.5 mph - N/A   Clear
11:23 PM 87.8 °F 90.4 °F 66.2 °F 49% 29.84 in 10.0 mi NW 6.9 mph - N/A Thunderstorm Scattered Clouds
11:53 PM 80.1 °F 83.6 °F 71.1 °F 74% 29.76 in 10.0 mi SW 5.8 mph - 0.06 in Rain , Thunderstorm Light Thunderstorms and Rain